Flag for Germany Weather past 2 weeks in Tuttlingen, Baden-Württemberg, Germany

Now
74 °F

Passing clouds.


Feels Like: 77 °F
Forecast: 51 / 77 °F
Wind: 2 mph from East

Location: Konstanz

Current Time: Jul 31, 2014 at 3:44:11 PM

Latest Report: Jul 31, 2014 at 3:00 PM


Visibility: 16 mi

Pressure: 29.93 "Hg

Humidity: 58%

Dew point: 58 °F

Location of TuttlingenLocation

Historic Weather in Tuttlingen — Graph

°F

Tuttlingen temperature yesterday

Maximum temperature yesterday: 65 °F (at 7:00 PM)
Minimum temperature yesterday: 61 °F (at 6:00 AM)
Average temperature yesterday: 63 °F

Past Weeks' High & Low Weather Summary

 TemperatureHumidityPressure
High91 °F (Jul 19, 6:00 PM)99% (Jul 23, 4:00 AM)30.18 "Hg (Jul 23, 4:00 AM)
Low59 °F (Jul 25, 6:00 AM)14% (Jul 18, 5:00 PM)29.70 "Hg (Jul 28, 7:00 PM)
Average68 °F73%29.92 "Hg
* Reported Jul 16 2:00 PM — Jul 31 2:00 PM, Tuttlingen, Weather by CustomWeather, © 2014

Note: Actual official high and low records may vary slightly from our data, if they occured in-between our weather recording intervals... More about our weather records

Advertising

Tuttlingen weather history for previous 24 hours

 ConditionsComfort  
Time TempWeatherWind HumidityBarometerVisibility
2:00 PM
Jul 31
72 °FPassing clouds.2 mph64%29.95 "Hg16 mi
1:00 PM69 °FPartly sunny.2 mph71%29.97 "Hg14 mi
12:00 PM71 °FPartly sunny.2 mph67%29.97 "Hg14 mi
11:00 AM70 °FScattered clouds.2 mph70%29.98 "Hg12 mi
10:00 AM67 °FPartly sunny.1 mph73%29.98 "Hg8 mi
9:00 AM65 °FFog.1 mph86%29.99 "Hg4 mi
8:00 AM63 °FLow clouds.1 mph90%29.99 "Hg5 mi
7:00 AM62 °FOvercast.2 mph89%29.98 "Hg6 mi
6:00 AM62 °FFog.2 mph90%29.98 "Hg4 mi
5:00 AM62 °FFog.2 mph91%29.97 "Hg4 mi
4:00 AM62 °FOvercast.2 mph91%29.96 "Hg5 mi
3:00 AM63 °FOvercast.2 mph92%29.95 "Hg5 mi
2:00 AM63 °FOvercast.2 mph91%29.95 "Hg5 mi
1:00 AM63 °FOvercast.2 mph94%29.95 "Hg4 mi
12:00 AM64 °FDrizzle. Overcast.2 mph95%29.93 "Hg4 mi
11:00 PM
Jul 30
64 °FOvercast.2 mph95%29.93 "Hg8 mi
10:00 PM64 °FLight rain. Low clouds.2 mph96%29.90 "Hg10 mi
9:00 PM64 °FLow clouds.3 mph96%29.89 "Hg16 mi
8:00 PM64 °FLow clouds.3 mph95%29.87 "Hg9 mi
7:00 PM65 °FOvercast.5 mph90%29.86 "Hg8 mi
6:00 PM64 °FLight rain. Low clouds.3 mph90%29.85 "Hg8 mi
5:00 PM63 °FRain. Low clouds.3 mph95%29.86 "Hg8 mi
4:00 PM64 °FRain. Low clouds.5 mph88%29.85 "Hg6 mi
3:00 PM64 °FRain. Low clouds.5 mph87%29.85 "Hg2 mi
Weather by CustomWeather, © 2014

See weather overviewHow to use our weather pages